Overview Statistics Trail Chart Weather Telemetry Raw packets
 

This is the latest recevied weather packets stored in our database for station/object KA1JKB. If no packets are shown the sender has not sent any weather packets the latest 10 day(s).

<< 105 106 107 108 109 110 111 >>
Time Temp. Humidity Pressure Rain* Wind** Luminosity Snow
1787659618 14.44° C 99% 1017.6 hPa 0 mm - 53 W/m² -
1787659315 14.44° C 99% 1017.6 hPa 0 mm - 50 W/m² -
1787659008 13.89° C 99% 1017.4 hPa 0 mm - 44 W/m² -
1787658709 13.89° C 99% 1017.4 hPa 0 mm - 40 W/m² -
1787658408 12.22° C 99% 1017.3 hPa 0 mm - 40 W/m² -
1787658104 11.11° C 99% 1017.4 hPa 0 mm - 36 W/m² -
1787657799 10° C 99% 1017.3 hPa 0 mm - 26 W/m² -
1787657495 10° C 99% 1017.5 hPa 0 mm - 24 W/m² -
1787657195 10° C 99% 1017.2 hPa 0 mm - 22 W/m² -
1787656891 10° C 99% 1017.3 hPa 0 mm - 18 W/m² -
1787656587 9.44° C 99% 1017.2 hPa 0 mm - 14 W/m² -
1787656288 9.44° C 99% 1017.1 hPa 0 mm - 12 W/m² -
1787655984 9.44° C 99% 1017.3 hPa 0 mm - 8 W/m² -
1787655680 9.44° C 99% 1017.3 hPa 0 mm - 4 W/m² -
1787655378 9.44° C 99% 1017.1 hPa 0 mm - 2 W/m² -
1787655077 9.44° C 99% 1017.3 hPa 0 mm - 1 W/m² -
1787654774 10° C 99% 1017 hPa 0 mm - 0 W/m² -
1787654469 10° C 99% 1017.1 hPa 0 mm - 0 W/m² -
1787654165 10° C 99% 1017.2 hPa 0 mm - 0 W/m² -
1787653865 10° C 99% 1017 hPa 0 mm - 0 W/m² -
1787653560 10° C 99% 1017.2 hPa 0 mm - 0 W/m² -
1787653255 10° C 99% 1017.2 hPa 0 mm - 0 W/m² -
1787652950 10° C 99% 1017.1 hPa 0 mm - 0 W/m² -
1787652645 10° C 99% 1017.1 hPa 0 mm - 0 W/m² -
1787652345 10° C 99% 1017.1 hPa 0 mm - 0 W/m² -

* Rain latest hour (hover to see other rain measurements)
** Current wind speed in m/s (hover to see current wind gust speed)